Location: De Har
(53.3413°N, 6.6858°E)
Time: 20:58:45
(UTC+00:00)

Cosmos 1933 - Pass Details

Date: 22 April 2026
Orbit: 508 x 512 km, 82.5° (Epoch: 21 May)

Event Time Altitude Azimuth Distance (km) Brightness Sun altitude
Exits shadow 00:54:10 29° 293° (WNW) 956 4.5 -22.2°
Drops below altitude 10° 00:57:29 10° 353° (N) 1,741 6.7 -22.0°
Sets 00:59:49 0° 4° (N) 2,632 8.0 -21.9°
